If you wish to contribute or participate in the discussions about articles you are invited to join SKYbrary as a registered user

 Actions

Diego Aracena International Airport

From SKYbrary Wiki

SCDA
Airport
ICAO: SCDA – IATA: IQQ
Summary
Name Diego Aracena International Airport
Region South America and Caribbean
Territory Chile CL.gif
Location Chucumata, Tarapaca
Serving Iquique
Elevation 47.244 m
155 ft
155 ft47.244 m
Type medium airport
Coordinates 20° 32' 6.80" S, 70° 10' 52.59" W
Runways
Designator Length Width Surface ROPS
1/19 3350 m10,990.814 ft
45 m147.638 ft
ASP /


METAR
Observation SCDA 242200Z 23018KT CAVOK 25/17 Q1011
Station Iquique / Diego Arac
Date/Time 24 February 2020 22:00:00
Wind direction 230°
Wind speed 18 kts
Lowest cloud amount clouds and visibility OK
Temperature 25°C
Dew point 17°C
Humidity 61%
QNH 1011 hPa
Weather condition n/a

International airport serving Iquique, Tarapaca region, Chile. The airport is 48 km25.918 nm
48,000 m
157,480.315 ft
south of the city. The runway is shared with the Los Condores Air Base.

Climatology

Temperate oceanic climate (Köppen climate classification Cfb)

Maps

Terrain

Loading map...

Airport Layout

Loading map...


Accidents & Serious Incidents at or in vicinity of SCDA

None on SKYbrary